2024-125F

Last updated on Sun Aug 04 2024 00:02:04 GMT+0000 (Coordinated Universal Time)

1 60208U 24125F 24216.56590681 .00011431 00000+0 52616-3 0 9997 2 60208 97.3192 68.5549 0028300 148.8719 211.4201 15.20108216 4626
UTC large
Height (km)
Speed (km/s)
/
Latitude / Longitude
Inclination (degrees)
Orbital Period (minutes)
Azimuth
Elevation
Range (km)
Doppler Factor

Next 0 passes for location: London (51.5072 / 0.1276)

Sorry there are no passes over London.